Погода в Слуцке

Погода в Слуцке : погода сейчас, прогноз погоды и архив. Всё, что Вы хотите узнать о погоде в Слуцке!

Хотите узнать прогноз погоды в Слуцке? Тогда Вам сюда: Погода в Слуцке

Поиск расширенной информации на нашем сайте:

Другие новости

Новости СМИ2

Главная страница сайта

Новости сайта

02.10.2013

Напоминаем, что на нашем новом сайте вы можете получить высокодетализированные прогнозы погоды по пунктам России, СНГ и мира (включающие важные для авиации метеовеличины, такие как направление и скорость ветра, видимость, явления погоды, количество и форма облачности, нижняя и верхняя граница облачности), а также ознакомиться с разнообразными материалами по авиационной метеорологии и подборкой полезных ссылок на эту тему.

Сайт Метеоцентр.Азия посвящён разработке технологий оптимизации авиаметеорологического обслуживания, включая проектирование и перспективное создание нескольких автоматизированных авиаметеорологических систем:
- система выпуска высокодетальных прогностических карт явлений погоды для нижнего воздушного пространства по России и ближнему зарубежью;
- система верификации прогнозов TAF (выпускаемых синоптиками официальных АМСГ РФ и ближнего зарубежья) и AUTOTAF (выпускаемых сайтом Метеоцентр.Азия) - выявление ошибок, онлайн-сопоставление с фактической погодой METAR, автоматическое внесение коррективов в прогнозы при резком отклонении фактической погоды от прогноза, подсчёт оправдываемости прогнозов по элементам и в целом;
- система обработки, анализа и отображения авиаметеорологической информации для применения провайдерами метеорологической информации.


Погода в Слуцке - сегодня

Время (UTC), дата Ветер
(°,м/с) 
Видим.   Явления Облачность Т
(°С)
Тd
(°С)
f(%) Тe
(°С)
Pmin
(гПа)
dP
(гПа)
Po
(мм)
O2
(г/м3)
Тmin Tmax R s Состояние
почвы
06 21.07.16 340 (С) 6{10}  8000 м  дождь  10/10 270 м 
[Frnb|Ns]
+12.8 +12.2 96 +17  1004.4  -1.3  739  282  +11.9    13     
09 21.07.16 340 (С) 6-10{11}  11000 м  {дождь}  10/10 300 м 
[St]
+15.2 +14.5 96 +23  1003.8  -0.4  739  279      0.0     
12 21.07.16 340 (С) 7-11{11}  8000 м  слаб. дождь  10/10 360 м 
[Frnb|Ns]
+17.3 +16.1 93 +28  1004.1  0.5  739  276      0.0     
15 21.07.16 080 (В) 2{11}  13000 м  {дождь}  9/9 600 м кучево-дожд. 
[Cb cap]
+17.4 +16.2 93 +29  1005.9  1.8  740  277         
18 21.07.16 080 (В) 12000 м  {дождь}  9/9 600 м 
[Sc]
+15.7 +14.5 93 +25  1008.3  2.2  742  280    +18.5     
21 21.07.16 070 (В) 11000 м    8/0 средняя 
[Ac trans]
+14.2 +13.8 97 +22  1009.9  1.5  743  282           
00 22.07.16 тихо ()   2200 м  дымка  3/0 средняя, верхняя 
[Ac lent|Ci sp]
+11.5 +11.3 99 +15  1010.8  0.6  744  285           
03 22.07.16 тихо ()   3600 м  дымка  8/0 средняя 
[Ac trans]
+10.3 +10.2 99 +12  1011.7  0.9  744  287           
06 22.07.16 110 (В) 12000 м    3/3 300 м верхняя 
[St|Ci sp]
+16.1 +12.5 79 +22  1012.2  0.8  745  281  +9.4         
09 22.07.16 350 (С) 20000 м    3/3 600 м верхняя 
[Sc|Ci sp]
+19.5 +12.8 65 +26  1012.7  0.8  745  278           
12 22.07.16 250 (З) 25000 м    5/4 600 м верхняя 
[Cu med, cong|Ci sp]
+22.3 +12.1 52 +26  1012.9  0.3  746  275           
15 22.07.16 270 (З) 25000 м    4/3 600 м верхняя 
[Cu med, cong|Ci sp]
+23.5 +11.9 48 +27  1012.7  -0.1  746  274           
18 22.07.16 320 (СЗ) 13000 м    3/0 верхняя 
[Ci fib]
+21.8 +15.1 66 +31  1013.4  0.6  746  275    +23.9       
21 22.07.16 280 (З) 11000 м    3/0 верхняя 
[Ci fib]
+15 +14.1 94 +23  1014.5  0.6  746  282           
00 23.07.16 310 (СЗ) 10 км    4/0 средняя 
[Ac trans]
+14 +13.2 95 +21  1014.8  0.3  747  284           
03 23.07.16 320 (СЗ) 8000 м  дымка  6/1 600 м средняя, верхняя 
[Sc|Ac trans|Ci fib]
+12.8 +12.4 97 +19  1014.7  -0.3  746  285           
06 23.07.16 320 (СЗ) 15000 м    8/0 средняя 
[Ac und]
+20.5 +15.2 72 +30  1014.1  746  277  +12.7         
09 23.07.16 020 (С) 20000 м    9/6 600 м средняя 
[Sc|Ac cast]
+22.7 +14 58 +30  1014.4  -0.4  747  275           
12 23.07.16 020 (С) 20000 м    9/9 600 м 
[Sc]
+24.3 +15.3 57 +34  1014.3  747  273           
15 23.07.16 020 (С) 25000 м    6/3 1000 м верхняя 
[Cu hum|Ci fib]
+25.7 +14.5 50 +34  1013.5  -0.6  746  272           
18 23.07.16 050 (СВ) 20000 м    3/0 верхняя 
[Ci fib]
+21.3 +17.3 78 +34  1015  1.2  747  275    +26.9       
21 23.07.16 010 (С) 10 км    ясно 
+18.2 +16.7 91 +31  1015.9  0.6  748  279           
00 24.07.16 010 (С) 7000 м  дымка  ясно 
+16.7 +16 96 +29  1016.3  0.4  748  281           
03 24.07.16 350 (С) 5000 м  дымка  10/10 240 м 
[St]
+17 +16.7 98 +30  1016.9  0.6  748  280           
06 24.07.16 030 (СВ) 10 км    9/9 600 м 
[Sc]
+19.4 +17.4 88 +33  1017.4  0.6  749  278  +14.8         
Время (UTC), дата Ветер
(°,м/с) 
Видим.   Явления Облачность Т
(°С)
Тd
(°С)
f(%) Тe
(°С)
Pmin
(гПа)
dP
(гПа)
Po
(мм)
O2
(г/м3)
Тmin Tmax R s Состояние
почвы

Для получения пояснительной информации подведите курсор к названию столбца.

ПОГОДА в Слуцке - архив

Всё, что Вы хотите узнать о погоде в Слуцке - удобно и подробно!

Выберите нужную дату (начиная с 1 января 2015* года) и нажмите кнопку "Найти".
Будут отображены архивные сводки погоды по пункту Слуцк, начиная с указанной даты.


Отображать данные в формате CSV (для использования в таблицах Excel)


Внимание! Наш архив погоды предназначен исключительно для личного некоммерческого использования в познавательных целях. Если Вам необходимы официальные справки о состоянии погоды (для производственных, юридических, коммерческих и т.п. целей), обращайтесь в органы Росгидромета.

*Примечание: данная дата относится к архиву по метеостанциям СССР (Россия, СНГ, Балтия).
Архив по метеостанциям Зарубежной Европы и Азии (кроме Китая) хранится 10 дней, по другим регионам земного шара (Китай, Африка, Америка, Австралия, Океания) - 1 день.

Слуцк - район местоположения метеостанции


Название, широта, долгота, высота метеостанции:
Слуцк 53°ш. 27.6°д. 162 м над ур. моря [Беларусь]

Дополнительная информация

В oтличие oт бoльшинства пoгoдных сайтoв мы публикуем пoдрoбную метеoинфoрмацию в детальнoм прoфессиoнальнoм фoрмате.

Характеристики температуры и влажнoсти вoздуха измеряются на высoте 2 м в тени вдали oт зданий и деревьев.
Скoрoсть ветра измеряется на высoте 10 м (на урoвне рoста челoвека скoрoсть ветра ниже в 1.5-2 раза). Если метеoстанция нахoдится в гoрoде или в лесу, тo скoрoсть ветра занижена на 2-4 м/с пo сравнению с oткрытым местoм. Скoрoсть ветра над акватoриями крупных рек и oзёр, а также на вершинах хoлмoв на 2-5 м/с выше, чем в oбычных услoвиях.
Атмoсфернoе давление в разных тoчках местнoсти мoжет значительнo oтличаться oт давления на метеoстанции, в зависимoсти oт услoвий рельефа (при пoдъёме на 10 м давление пoнижается примернo на 1 мм рт.ст.).